Location: Fayetteville
(35.0530°N, 78.8790°W)
Time: 15:14:01
(UTC-05:00)

ISS - Visible Passes

Search period start: 05 March 2015 00:00
Search period end: 15 March 2015 01:00
Orbit: 397 x 408 km, 51.6° (Epoch: 05 March)

Date Brightness Start Highest point End Pass type
(mag) Time Alt. Az. Time Alt. Az. Time Alt. Az.
07 Mar 0.0 05:39:26 10° SE 05:40:13 11° SE 05:41:09 10° ESE visible
09 Mar -1.4 06:27:42 10° SSW 06:30:31 28° SE 06:33:22 10° ENE visible
10 Mar -0.5 05:36:59 13° SE 05:37:40 13° SE 05:39:22 10° E visible
11 Mar -3.4 06:19:21 31° SW 06:20:46 83° SE 06:24:00 10° NE visible
12 Mar -1.2 05:28:52 26° E 05:28:52 26° E 05:30:46 10° ENE visible
12 Mar -1.7 07:01:46 10° W 07:04:17 20° NNW 07:06:45 10° NNE visible
13 Mar -2.6 06:10:50 36° NW 06:11:02 36° NW 06:14:04 10° NNE visible
14 Mar -0.7 05:20:01 19° NE 05:20:01 19° NE 05:21:06 10° NE visible
14 Mar -0.9 06:53:37 10° NW 06:54:46 11° NNW 06:55:50 10° N visible
